Regional Weather Roundup
Issued by NWS

Home | Current Version | Previous Version | Text Only | Print | Product List | Glossary Off
Versions: 1 2 3 4 5 6 7 8 9 10 11 12 13 14 15 16 17 18 19 20 21 22 23 24 25 26 27 28 29 30 31 32 33 34 35 36 37 38 39 40 41 42 43 44 45 46 47 48 49 50

000
ASUS43 KDMX 272108
RWRIA

WEATHER ROUNDUP FOR IOWA
NATIONAL WEATHER SERVICE DES MOINES IA
400 PM CDT TUE SEP 27 2016

NOTE: "FAIR" INDICATES FEW OR NO CLOUDS BELOW 12,000 FEET WITH NO
SIGNIFICANT WEATHER AND/OR OBSTRUCTIONS TO VISIBILITY.

* - THESE STATIONS ARE NOT NWS STATIONS...THUS NOT UNDER NWS
QUALITY CONTROL.  THEY ALSO DO NOT REPORT WEATHER SUCH
AS PRECIPITATION OR FOG.

IAZ001>003-012>014-020>022-031>034-043>046-272200-
   NORTHWEST IOWA

CITY           SKY/WX    TMP DP  RH WIND       PRES   REMARKS
CARROLL *      SUNNY     75  43  31 W15G22    29.85F
CHEROKEE *     SUNNY     72  43  35 NW14G24   29.86F
DENISON *      SUNNY     75  41  29 NW13G24   29.85F
LE MARS *      SUNNY     75  45  33 NW17G25   29.88F
ORANGE CITY *  SUNNY     72  45  37 NW18G28   29.87F
SHELDON *      SUNNY     72  41  33 W16G26    29.85S
SIOUX CITY     SUNNY     76  44  32 NW14      29.88F
SPENCER        SUNNY     72  41  32 NW23G30   29.85S
STORM LAKE *   SUNNY     73  41  31 NW21G30   29.86F
$$

IAZ055>058-069>071-079>083-090>094-272200-
   SOUTHWEST IOWA

CITY           SKY/WX    TMP DP  RH WIND       PRES   REMARKS
ATLANTIC *     SUNNY     75  41  29 NW13G22   29.87F
AUDUBON *      SUNNY     73  39  29 NW10G20   29.88F
CLARINDA *       N/A     77  45  31 MISG      29.90F
COUNCIL BLFS * SUNNY     77  45  31 W10       29.90F
CRESTON *      SUNNY     73  41  31 NW18G24   29.89F
HARLAN  *      SUNNY     75  41  29 NW17      29.91F
LAMONI         SUNNY     77  43  29 W15       29.88F
RED OAK *      SUNNY     77  43  29 W13       29.89F
SHENANDOAH *   SUNNY     77  43  29 W10G16    29.90F
$$

IAZ047>049-059>061-072>074-084-272200-
   CENTRAL IOWA

CITY           SKY/WX    TMP DP  RH WIND       PRES   REMARKS
AMES           SUNNY     74  42  31 NW18G28   29.82F
ANKENY *         N/A    N/A N/A N/A MISG        N/A
BOONE *        SUNNY     73  41  31 W22G28    29.82F
CHARITON *       N/A     75  39  27 W13G25    29.85F
DES MOINES     MOSUNNY   76  41  28 W20       29.83F
GRINNELL*      SUNNY     74  38  27 W15G23    29.83F
KNOXVILLE *    SUNNY     75  39  27 W16G26    29.82F
MARSHALLTOWN   SUNNY     72  39  30 W16G25    29.80F
NEWTON *       SUNNY     75  39  27 NW12G24   29.81F
PELLA *        SUNNY     74  38  26 NW15G21   29.84F
PERRY *          N/A     76  39  26 W13G20    29.84F
$$

IAZ004>006-015-016-023>025-035-036-272200-
   NORTH CENTRAL IOWA

CITY           SKY/WX    TMP DP  RH WIND       PRES   REMARKS
ALGONA *       SUNNY     72  36  26 NW14G28   29.82F
CLARION *      SUNNY     72  36  26 NW21G26   29.82F
ESTHERVILLE    SUNNY     71  36  27 NW18G26   29.82F
FORT DODGE *   SUNNY     72  43  35 W13G22    29.84F
MASON CITY     SUNNY     69  30  23 NW23G30   29.81F
FOREST CITY *    N/A     68  27  21 NW18G29   29.81S
WEBSTER CITY * SUNNY     73  39  29 NW21G31   29.80F
IOWA FALLS *     N/A     72  35  25 W17G28    29.82F
$$

IAZ007>011-017>019-026>030-037>042-050>054-066-272200-
   NORTHEAST IOWA

CITY           SKY/WX    TMP DP  RH WIND       PRES   REMARKS
CEDAR RAPIDS   SUNNY     71  38  29 W18       29.78F
CHARLES CITY * SUNNY     70  28  21 W13G24    29.79F
CLINTON *      MOSUNNY   70  33  25 W17G25    29.77F
DECORAH *      CLOUDY    63  32  31 NW7G24    29.76S
DUBUQUE        SUNNY     66  33  29 W16       29.77F
MONTICELLO *   SUNNY     72  32  23 W13G25    29.77S
OELWEIN *      SUNNY     68  32  26 W17G26    29.78F
WATERLOO       SUNNY     71  29  21 W18G26    29.77F
$$

IAZ064-065-067-068-078-272200-
   EAST CENTRAL IOWA

CITY           SKY/WX    TMP DP  RH WIND       PRES   REMARKS
DAVENPORT      SUNNY     73  30  20 W16G28    29.78F
IOWA CITY      SUNNY     73  35  25 W23G31    29.80F
MT. PLEASANT * SUNNY     77  34  20 W15G24    29.81F
MUSCATINE *    SUNNY     75  32  20 W17G28    29.80F
QUAD CITIES    SUNNY     74  34  23 W20G28    29.77F
$$

IAZ062-063-075>077-085>089-095>099-272200-
   SOUTHEAST IOWA

CITY           SKY/WX    TMP DP  RH WIND       PRES   REMARKS
BURLINGTON     SUNNY     75  35  23 W13G21    29.81F
FAIRFIELD *    SUNNY     75  36  23 W17G24    29.81F
FORT MADISON *   N/A     75  36  23 W14G20    29.83F
KEOKUK *       SUNNY     77  36  22 W21       29.82F
OSKALOOSA *      N/A     75  38  26 NW18G25   29.83F
CENTERVILLE *    N/A     75  39  27 W14G20    29.87F
OTTUMWA        SUNNY     74  39  28 NW17G26   29.82F
WASHINGTON *     N/A    N/A N/A N/A MISG        N/A
$$

ABBREVIATIONS USED IN REMARKS
   TC - TEMPERATURES IN CELSIUS
  WCI - WIND CHILL INDEX
   HX - HEAT INDEX
  VSB - VISIBILITY
$$




USA.gov is the U.S. government's official web portal to all federal, state and local government web resources and services.